Location: Fort Wayne
(41.1310°N, 85.1290°W)
Time: 06:23:26
(UTC-04:00)

Tiros 1 despin weight - Visible Passes

Search period start: 04 September 2015 00:00
Search period end: 14 September 2015 00:00
Orbit: 597 x 646 km, 48.2° (Epoch: 02 September)

Date Brightness Start Highest point End Pass type
(mag) Time Alt. Az. Time Alt. Az. Time Alt. Az.
06 Sep ? 05:46:24 10° S 05:49:09 16° SE 05:52:01 10° E visible
07 Sep ? 06:02:43 10° SSW 06:06:43 31° SE 06:10:43 10° ENE visible
08 Sep ? 04:42:56 11° SE 04:43:20 11° SE 04:44:47 10° ESE visible
08 Sep ? 06:20:06 11° SW 06:24:23 59° SE 06:28:49 10° ENE visible
09 Sep ? 05:00:18 22° SSE 05:00:51 23° SE 05:04:27 10° E visible
09 Sep ? 06:37:37 10° WSW 06:42:11 80° NNW 06:46:41 10° ENE visible
10 Sep ? 05:17:34 38° S 05:18:28 43° SE 05:22:46 10° ENE visible
11 Sep ? 03:57:38 11° E 03:57:38 11° E 03:57:55 10° E visible
11 Sep ? 05:34:46 44° SW 05:36:12 79° SSE 05:40:43 10° ENE visible
12 Sep ? 04:14:47 21° E 04:14:47 21° E 04:16:37 10° ENE visible
12 Sep ? 05:51:55 30° W 05:54:03 64° NNW 05:58:32 10° ENE visible
13 Sep ? 04:31:53 36° E 04:31:53 36° E 04:34:43 10° ENE visible
13 Sep ? 06:09:01 19° W 06:12:02 44° NNW 06:16:21 10° ENE visible
